Miscellaneous Local Product
Issued by NWS North Platte, NE

Home | Current Version | Previous Version | Graphics & Text | Print | Product List | Glossary On
Versions: 1 2 3 4 5 6 7 8 9 10 11 12 13 14 15 16 17 18 19 20 21 22 23 24 25 26 27 28 29 30 31 32 33 34 35 36 37 38 39 40 41 42 43 44 45 46 47 48 49 50
000
AXUS43 KLBF 242110
MISLBF


WESTERN AND NORTH CENTRAL NEBRASKA HOURLY WEATHER ROUNDUP
NATIONAL WEATHER SERVICE NORTH PLATTE NE
400 PM CDT TUE MAY 24 2016

NOTE: "FAIR" INDICATES FEW OR NO CLOUDS BELOW 12,000 FEET WITH NO
SIGNIFICANT WEATHER AND/OR OBSTRUCTIONS TO VISIBILITY.

NOTE: STATIONS NOT REPORTING VARIABLES SUCH AS SKY/WEATHER OR
PRESSURE ARE PROVIDED BY RAWS AND APRS NETWORKS AND ARE NOT UNDER
NATIONAL WEATHER SERVICE QUALITY CONTROL.

...OBSERVATIONS IN AND NEAR THE EASTERN PANHANDLE OF NEBRASKA...

CITY           SKY/WX    TMP DP  RH WIND       PRES   REMARKS
PINE RIDGE     MOSUNNY   78  42  27 S12G23    29.84F
CHADRON        MOSUNNY   79  45  29 S20G25    29.81F
ALLIANCE       SUNNY     75  48  38 S20G25    29.86F
SIDNEY         MOSUNNY   77  46  33 SE20G31   29.88F
CRESCENT LAKE    N/A     78  47  33 S12G20      N/A
BIG SPRINGS      N/A     79  51  37 SE14        N/A
$$

...OBSERVATIONS IN NORTHERN NEBRASKA AND FAR SOUTHERN SOUTH DAKOTA...

CITY           SKY/WX    TMP DP  RH WIND       PRES   REMARKS
WINNER         FAIR      82  46  28 S3        29.85F
VALENTINE      SUNNY     81  47  30 SE8       29.86F
THEDFORD       PTSUNNY   80  53  39 SE9G18    29.87F
AINSWORTH      SUNNY     81  49  33 S9        29.87F
O`NEILL        SUNNY     82  47  29 CALM      29.88S
ORD            SUNNY     81  53  37 SE9       29.85F
BROKEN BOW     SUNNY     79  57  46 SE10      29.88F
BUTTE            N/A     82  46  27 SW6         N/A
CHAMBERS         N/A     84  57  39 S3          N/A
EWING            N/A     84  60  43 SW3         N/A
$$

...OBSERVATIONS IN SOUTHWEST NEBRASKA AND FAR NORTHEAST COLORADO...

CITY           SKY/WX    TMP DP  RH WIND       PRES   REMARKS
WRAY           MOCLDY    75  55  50 SE15G23   29.87F
HOLYOKE        FAIR      79  55  44 S18G25    29.87F
IMPERIAL       PTSUNNY   76  58  53 SE20G30   29.86F
OGALLALA       SUNNY     78  49  35 SE16G22   29.87F
NORTH PLATTE   SUNNY     79  54  41 SE10G21   29.86F
MCCOOK         MOSUNNY   77  60  55 S16G24    29.87F
LEXINGTON      SUNNY     78  60  54 S15       29.87F
PAXTON           N/A     80  52  37 E18         N/A
STAPLETON        N/A     81  51  34 SE3G13      N/A
GOTHENBURG       N/A     77  49  36 S12         N/A
CALLAWAY         N/A     78  54  43 S12         N/A
$$

...OBSERVATIONS IN CENTRAL LINCOLN COUNTY AREA...

CITY           SKY/WX    TMP DP  RH WIND       PRES   REMARKS
N.P. AIRPORT   SUNNY     79  54  41 SE10G21   29.86F
N.P. DOWNTOWN    N/A     79  53  40 S8G16       N/A
N.P. SOUTHEAST   N/A     79  55  43 S7G16       N/A
N.P. HILLCREST   N/A     79  54  41 S13         N/A
$$

...SOME OBSERVATIONS FROM AROUND THE REGION...

CITY           SKY/WX    TMP DP  RH WIND       PRES   REMARKS
DENVER         TSTM      64  48  56 E13       29.84F
LARAMIE        CLOUDY    63  38  39 SE29G39   29.91F
CHEYENNE       CLOUDY    66  42  41 S16G31    29.91F
SCOTTSBLUFF    MOSUNNY   78  48  34 SE18G28   29.83F
RAPID CITY     LGT RAIN  70  47  43 E13       29.86F
BISMARCK       SUNNY     76  41  28 CALM      29.87F
PIERRE         SUNNY     80  33  18 CALM      29.84F
SIOUX FALLS    MOSUNNY   83  51  33 S3        29.87S
OMAHA          MOSUNNY   81  59  47 SE9       29.89S
GRAND ISLAND   SUNNY     78  58  49 SE12      29.89F
KANSAS CITY    MOSUNNY   78  65  63 SE9       29.88F
WICHITA        PTSUNNY   82  71  69 SE14      29.86F
OKLAHOMA CITY  PTSUNNY   85  72  65 S15G22    29.87S HX  91
DALLAS         CLOUDY    84  71  65 S15       29.91F
AMARILLO       SUNNY     89  57  33 S25G32    29.86F
DODGE CITY     MOSUNNY   82  68  62 SE22      29.82F
HAYS           PTSUNNY   79  61  53 SE20      29.85S
GOODLAND       MOSUNNY   75  60  59 SE12      29.87F
$$




USA.gov is the U.S. government's official web portal to all federal, state and local government web resources and services.